パンスターズ彗星

C/2019 U5 ( PanSTARRS )

English version
Home page
Updated on April 28, 2023

---------------------------------------------------------------------

・ プロフィール

発見日 2019年10月22日
発見光度 21.1等
発見者 Pan-STARRS 1 telescope (Haleakala)

・ 写真集

・ 軌道要素

Epoch 2023 Feb. 25.0 TT = JDT 2460000.5
T 2023 Mar. 29.85173 TT                                 Rudenko
q   3.6241923            (2000.0)            P               Q
z  -0.0004088      Peri.  181.49738     -0.99907955     +0.00774683
 +/-0.0000003      Node     2.63731     -0.02311353     +0.73134212
e   1.0014817      Incl.  113.52061     -0.03613607     -0.68196678
>From 3250 observations 2019 Oct. 11-2023 Feb. 27, mean residual 0".4.

・ 星図

・ 光度変化

        m1 = 2.5 + 5 logΔ + 12.0 log r

---------------------------------------------------------------------

軌道要素はM.P.E.C. 2023-D72に掲載されたものです。
星図はステラナビゲータ Ver.10 (アストロアーツ) で作成したものです。
光度グラフはComet for Windowsで作成したものです。

---------------------------------------------------------------------

Copyright(C) Seiichi Yoshida (comet@aerith.net). All rights reserved.